This is the latest recevied weather packets stored in our database for station/object WB8ZGM-13. If no packets are shown the sender has not sent any weather packets the latest 1 day(s).
| Time | Temp. | Humidity | Pressure | Rain* | Wind** | Luminosity | Snow |
|---|---|---|---|---|---|---|---|
| 1778091835 | 13.33° C | 99% | 995.7 hPa | 0.25 mm | - | - | - |
| 1778088175 | 13.89° C | 99% | 995.5 hPa | 0 mm | - | - | - |
| 1778087275 | 14.44° C | 99% | 994.9 hPa | 0 mm | - | - | - |
| 1778085415 | 13.89° C | 99% | 995.5 hPa | 0 mm | - | - | - |
| 1778084515 | 13.89° C | 99% | 995.2 hPa | 0 mm | - | - | - |
| 1778083615 | 13.89° C | 99% | 995.3 hPa | 0 mm | - | - | - |
| 1778082715 | 13.33° C | 99% | 995.3 hPa | 0 mm | - | - | - |
| 1778081785 | 13.33° C | 99% | 995.4 hPa | 0 mm | - | - | - |
| 1778079925 | 13.33° C | 99% | 994.8 hPa | 0 mm | - | - | - |
| 1778069844 | 13.89° C | 99% | 993.2 hPa | 0 mm | - | - | - |
| 1778067114 | 14.44° C | 99% | 991.7 hPa | 3.81 mm | - | - | - |
| 1778066184 | 15° C | 99% | 991.4 hPa | 5.33 mm | - | - | - |
| 1778065254 | 16.67° C | 99% | 991.2 hPa | 6.1 mm | - | - | - |
| 1778064324 | 17.22° C | 99% | 992 hPa | 13.46 mm | - | - | - |
| 1778063394 | 18.89° C | 99% | 991.9 hPa | 11.94 mm | - | - | - |
| 1778062494 | 18.89° C | 99% | 991 hPa | 11.43 mm | - | - | - |
| 1778061594 | 18.89° C | 99% | 991.3 hPa | 12.7 mm | - | - | - |
| 1778060664 | 18.89° C | 99% | 990.6 hPa | 5.33 mm | - | - | - |
| 1778059734 | 19.44° C | 99% | 990.4 hPa | 5.59 mm | - | - | - |
| 1778058804 | 19.44° C | 99% | 990.3 hPa | 4.06 mm | - | - | - |
| 1778057904 | 20° C | 98% | 990.3 hPa | 1.52 mm | - | - | - |
| 1778057004 | 20.56° C | 94% | 989.6 hPa | 0.76 mm | - | - | - |
| 1778056074 | 21.67° C | 86% | 989.3 hPa | 0 mm | - | - | - |
| 1778049653 | 21.67° C | 76% | 989.3 hPa | 0 mm | - | - | - |
| 1778048753 | 21.67° C | 75% | 989.6 hPa | 0 mm | - | - | - |
* Rain latest hour (hover to see other rain measurements)
** Current wind speed in m/s (hover to see current wind gust speed)